Temp
8 8 8 8 8 8 8 8 8 8 8 8 8 8 8 8 8 8 8 9 9 8 9 9 9 9 9 9 9 9 10 11 12 12 14 17 20 20 20 21 22 22 21 21 21 21 22 22 23 23 24 24 25 25 26 26 27 27 26 25 23 24 24 26 28 28 30 30 30 31 31 30 31 31 32 32 32 32 29 28 28 27 27 26 25 24 22 22
8 8 8 8 8 8 8 8 8 8 8 8 9 9 9 9 9 9 9 9 8 8 9 9 9 9 9 9 10 10 10 11 11 12 17 21 21 19 20 21 21 22 21 21 21 22 22 23 24 24 24 24 25 26 26 27 27 26 26 25 24 25 26 28 28 29 31 30 30 31 31 31 31 31 31 31 31 31 28 26 26 25 25 25 24 23 22 22
8 8 8 8 8 8 8 8 8 8 8 8 9 9 9 9 9 9 9 8 8 8 9 8 9 8 9 9 10 11 10 11 13 16 21 23 21 20 20 20 21 21 21 21 22 22 22 23 25 25 24 24 25 26 26 27 27 26 26 25 25 27 27 28 29 29 31 30 30 31 30 31 31 31 31 31 30 31 28 25 25 24 23 24 23 23 22 22
8 8 8 8 8 8 8 8 8 8 8 8 9 9 9 9 9 9 9 9 8 9 9 8 8 8 9 10 11 11 10 12 17 20 23 24 23 22 20 21 22 21 22 22 22 22 23 24 25 25 25 24 25 26 26 26 27 27 26 25 26 27 27 28 29 29 30 30 30 30 30 30 31 31 31 30 30 30 29 26 25 24 23 23 23 23 22 21
7 8 8 8 8 8 8 8 8 8 8 8 9 9 9 9 9 9 9 9 9 9 8 8 8 9 10 11 12 10 11 17 21 23 23 23 23 22 21 21 21 22 22 21 21 22 22 23 24 25 25 25 25 25 26 27 28 27 27 26 27 27 27 28 29 29 30 30 30 29 29 30 30 31 31 31 30 29 29 28 26 24 24 23 23 22 22 20
7 7 7 8 8 8 8 8 8 8 8 8 8 8 9 9 9 9 9 9 9 8 8 8 9 10 11 12 12 10 13 20 22 22 23 23 23 22 22 21 21 22 21 21 21 22 22 23 24 25 25 25 25 25 26 27 28 27 27 27 27 28 28 29 30 30 30 30 29 29 29 30 30 30 30 31 29 27 28 27 26 25 24 23 22 22 21 20
7 7 7 7 8 8 8 8 8 8 8 8 8 8 9 9 9 9 9 9 8 8 8 8 9 11 12 12 12 11 13 18 21 22 23 22 22 22 22 21 22 21 21 21 21 22 22 23 24 25 25 25 25 26 26 27 28 27 27 28 28 28 28 29 30 30 30 30 29 29 29 29 29 29 31 30 27 26 27 26 25 24 24 23 21 20 19 19
7 7 7 7 7 8 8 8 8 8 8 8 8 8 9 9 9 9 9 9 8 8 8 8 10 11 11 12 13 14 15 18 21 22 22 22 22 22 22 21 22 21 21 21 22 22 22 23 25 25 25 25 26 26 27 27 27 27 27 28 28 29 29 29 29 29 30 30 30 30 29 29 30 30 30 29 26 26 26 25 24 23 22 21 20 19 18 18
7 7 7 7 7 7 7 8 8 8 8 8 8 8 8 9 9 9 9 9 8 8 8 9 10 11 11 10 13 17 20 22 23 23 23 22 22 22 21 21 21 21 21 21 22 22 22 23 25 26 25 25 26 26 27 26 26 28 28 28 29 29 29 29 29 30 30 30 30 29 29 29 30 30 30 30 27 26 26 24 23 22 21 21 20 19 18 17
7 7 7 7 7 7 8 8 8 8 8 8 8 8 8 8 8 8 9 8 8 8 8 9 11 11 11 11 14 18 22 24 23 23 23 22 22 21 21 22 22 21 22 22 22 23 23 24 26 27 26 26 26 26 27 27 27 29 29 29 29 29 29 29 29 30 30 30 29 29 28 29 30 29 29 30 28 25 26 24 23 22 21 20 19 19 18 17
7 7 7 7 7 8 8 8 10 10 10 9 9 9 9 9 8 8 8 8 8 8 9 10 11 11 10 12 14 17 23 24 23 23 23 22 21 21 22 22 22 22 22 23 23 24 24 25 26 27 26 26 27 27 27 28 28 29 29 28 29 29 29 29 29 30 29 29 29 29 29 29 29 29 29 30 28 26 25 24 23 22 20 20 19 18 18 17
7 7 7 7 7 8 8 10 12 13 13 12 11 11 11 11 10 10 9 9 8 8 9 10 11 10 10 13 14 18 24 24 23 23 22 22 22 22 23 23 23 23 23 23 24 25 26 26 27 26 26 26 26 26 27 28 28 28 28 28 27 28 28 28 29 29 29 29 30 30 27 27 28 29 30 30 29 28 25 23 22 21 20 20 19 18 17 17
7 7 7 7 7 7 9 12 14 14 14 13 13 12 12 12 12 12 10 9 8 8 9 10 11 10 11 15 18 22 25 24 24 23 23 23 22 23 23 23 24 24 24 24 25 26 27 28 27 26 26 26 25 26 27 27 28 28 28 27 27 26 26 28 29 29 29 29 30 29 24 25 28 29 30 29 28 28 25 23 22 21 20 20 19 17 17 18
7 7 7 7 7 8 11 13 14 14 14 14 13 13 13 13 13 13 12 11 10 9 10 11 11 10 12 16 21 24 25 24 24 24 23 23 23 23 23 24 24 24 25 25 26 26 27 27 27 26 26 26 26 26 26 26 27 28 27 26 26 23 24 27 28 28 28 28 30 29 23 24 28 28 30 29 27 28 26 23 22 21 21 20 19 18 18 19
7 7 7 7 8 11 13 14 14 14 14 15 14 14 15 15 14 14 13 13 11 11 11 11 11 11 13 17 21 24 24 24 25 24 24 24 24 24 24 25 25 25 25 25 26 26 27 27 26 25 26 26 26 25 25 25 26 27 25 23 24 23 23 27 28 28 28 28 30 28 24 25 28 28 29 29 27 27 26 24 22 21 21 20 19 19 18 19
7 7 8 9 11 13 14 14 15 15 15 16 16 16 16 15 14 14 14 14 13 12 11 11 11 12 15 19 22 24 24 24 24 24 24 24 24 24 25 25 25 25 26 26 26 26 27 27 26 25 25 25 25 24 24 24 24 26 24 22 23 23 23 25 28 29 29 28 29 28 26 26 28 28 29 30 28 27 25 24 22 21 20 20 20 19 19 19
8 9 10 12 13 14 14 15 15 16 16 17 16 16 15 14 14 14 15 15 14 13 12 13 14 13 16 21 22 23 24 24 25 25 25 25 24 25 26 25 25 25 26 26 26 26 26 26 25 25 25 25 24 24 23 21 21 23 24 22 23 23 23 24 26 29 29 28 28 28 28 27 28 29 29 30 30 26 24 23 22 21 21 20 20 20 19 19
9 11 12 13 14 15 15 16 16 17 17 17 16 15 14 13 14 14 14 14 14 13 13 14 14 15 18 21 21 23 25 25 25 25 25 25 25 25 26 26 25 25 25 25 26 26 25 26 25 24 24 24 24 23 21 21 22 22 22 22 22 24 24 24 26 28 29 28 28 27 27 27 28 29 29 30 30 25 23 23 22 22 21 21 21 20 20 19
11 12 13 14 15 16 16 16 17 17 16 16 15 15 14 13 13 13 13 14 14 15 17 16 16 19 22 23 22 24 26 26 26 26 25 25 25 25 26 26 26 25 24 24 24 25 25 25 24 23 23 23 24 24 23 23 24 24 23 23 22 23 24 26 27 29 29 28 28 27 27 27 28 29 29 30 28 24 23 23 22 22 21 21 21 20 20 20
12 13 13 14 16 16 17 17 17 16 16 15 15 14 15 15 16 15 14 14 16 18 20 19 18 20 23 24 24 24 25 26 26 26 26 26 26 25 26 26 26 25 24 24 24 24 25 23 23 22 22 23 24 25 25 25 26 25 24 23 23 23 24 27 28 29 30 28 27 28 28 28 28 28 29 29 28 23 22 22 22 22 22 21 21 21 21 20
13 14 14 15 16 16 17 17 16 16 15 14 14 14 17 18 19 19 17 17 17 19 20 21 21 21 22 24 26 26 26 25 25 26 26 26 26 25 25 25 24 24 24 24 24 25 24 22 22 23 24 25 25 25 26 26 25 25 24 23 23 23 24 28 28 28 30 28 26 28 28 28 28 27 27 28 28 24 22 22 22 22 22 22 22 21 21 21
14 14 15 15 16 17 17 16 16 16 14 13 12 14 18 20 21 21 21 19 19 20 20 21 22 22 23 24 26 27 26 24 24 25 26 26 26 24 24 25 23 23 24 24 24 24 23 22 23 25 25 26 26 26 26 25 25 25 24 23 22 23 25 27 28 28 29 27 26 27 26 26 26 27 27 27 28 27 24 23 23 23 23 22 22 22 21 21
14 14 15 15 16 16 17 16 16 15 14 13 12 14 18 21 22 22 21 19 20 22 22 22 22 22 24 25 26 27 25 24 24 25 26 26 25 24 24 24 23 23 24 24 23 22 22 23 25 25 26 26 26 26 26 25 25 24 24 23 22 24 24 23 26 27 28 27 26 27 26 25 26 27 28 28 29 29 26 25 24 23 23 22 22 22 22 22
14 14 15 15 16 16 17 16 16 16 16 15 14 17 21 21 22 21 20 19 19 21 23 24 24 23 24 26 27 26 25 25 25 25 26 25 25 25 24 24 24 23 24 24 24 23 23 25 26 26 26 26 25 25 25 24 24 24 24 23 23 24 24 23 26 27 26 26 27 26 24 24 26 26 27 27 29 29 27 28 27 26 25 23 23 23 22 23
14 14 15 15 15 16 16 15 16 17 17 15 16 21 22 21 22 21 20 18 19 21 23 24 25 25 26 27 27 26 26 26 26 26 27 26 25 25 24 25 24 23 24 25 25 24 24 26 27 26 26 26 25 25 25 24 23 23 24 25 25 25 25 25 26 26 24 23 26 26 21 21 25 26 26 27 29 28 27 28 29 29 27 24 23 23 23 23
14 14 14 15 15 15 14 14 16 17 17 17 19 22 22 21 22 21 19 17 18 21 23 23 24 25 26 26 26 27 25 25 27 27 27 26 26 26 25 25 25 24 25 26 25 24 25 26 27 26 25 25 25 24 25 25 22 22 24 26 26 26 25 25 25 24 21 21 25 25 22 21 23 24 26 27 28 28 27 28 28 28 28 25 23 23 23 23
13 14 14 14 15 14 14 16 18 17 18 20 21 22 22 22 22 21 19 17 18 22 23 23 24 25 25 26 27 26 23 24 27 27 27 26 27 27 25 24 25 25 26 26 23 24 26 26 25 26 25 25 24 24 25 26 23 22 25 27 26 26 25 25 25 23 22 23 24 25 23 21 21 23 26 27 26 27 27 27 28 28 28 27 24 23 23 23
13 14 14 14 15 14 13 15 15 15 19 21 21 21 21 21 21 20 18 16 19 24 24 23 24 25 25 26 27 26 24 25 25 25 27 27 26 26 24 24 25 25 26 25 22 24 26 25 25 26 25 24 24 24 26 26 24 24 26 27 26 26 26 26 25 23 23 23 21 23 23 21 20 23 26 26 25 25 26 27 28 28 28 28 25 23 23 23
13 14 14 14 15 15 14 13 13 15 20 21 20 21 21 21 21 19 17 17 21 24 24 24 24 24 25 25 26 26 26 26 25 25 27 26 26 26 24 24 25 24 25 25 23 25 26 26 26 26 24 24 25 26 26 25 25 25 27 27 26 26 25 25 24 23 23 22 20 21 22 21 20 22 24 25 24 25 26 26 28 27 26 27 25 23 23 23
13 14 14 14 14 14 14 13 15 19 21 20 19 20 21 20 19 17 16 18 22 24 24 23 23 24 24 24 25 25 25 25 26 26 26 26 26 26 25 25 25 24 24 25 24 26 27 27 27 26 25 25 25 26 26 26 26 26 26 26 25 25 25 25 24 23 21 20 21 22 22 21 20 21 23 24 25 25 26 26 27 26 26 26 25 24 24 24
14 14 14 14 14 14 13 14 18 20 20 19 20 20 20 19 18 16 16 20 22 23 24 23 23 25 25 24 24 24 25 25 26 26 25 26 25 25 25 25 24 23 23 23 24 26 26 26 26 26 26 26 26 25 26 26 26 26 26 24 23 22 23 22 22 22 21 20 21 22 22 21 20 21 24 25 26 26 26 26 26 25 25 25 25 25 25 23
14 15 14 15 15 14 14 16 20 19 19 20 20 19 19 17 17 16 18 21 21 21 23 24 24 25 25 24 24 24 25 25 26 26 25 24 24 24 24 23 23 22 21 22 23 24 25 25 26 26 27 27 25 24 25 26 26 26 25 23 21 20 21 20 20 21 20 20 21 22 21 21 20 22 25 26 27 27 26 27 26 24 24 24 24 25 24 22
15 15 16 16 16 16 17 19 20 18 18 19 19 18 17 16 16 18 19 20 20 21 24 24 25 25 25 24 24 25 25 24 25 25 25 24 23 24 24 24 24 23 21 21 21 21 22 24 26 25 25 26 25 24 23 24 25 24 23 22 21 20 20 20 20 20 20 20 21 22 21 20 21 22 24 25 26 27 26 25 25 24 25 25 25 24 23 22
15 16 16 17 17 18 19 19 19 18 18 18 18 17 16 15 17 19 19 20 21 23 24 24 25 25 25 24 24 25 24 24 25 25 24 24 23 23 23 24 24 24 23 22 21 21 21 22 24 25 24 25 26 25 24 24 24 24 25 24 21 21 20 20 20 20 20 20 21 21 21 20 20 22 23 24 25 25 24 24 24 24 25 25 24 22 21 21
16 16 16 17 17 18 19 19 19 18 17 17 17 16 16 16 17 19 19 21 22 24 24 25 25 24 24 25 25 26 24 23 25 25 24 24 23 23 23 24 25 25 23 21 21 22 21 21 24 26 25 25 25 26 26 25 24 24 26 24 21 22 21 20 20 20 20 20 20 21 21 21 22 23 24 25 25 25 24 24 25 25 24 23 22 21 21 21
15 16 15 16 17 19 19 19 19 18 17 16 16 15 16 17 19 19 21 22 23 24 24 24 24 22 22 23 24 25 25 24 24 24 24 24 24 24 24 25 25 25 24 22 21 22 21 21 24 26 26 26 26 26 27 25 23 24 24 22 23 25 23 21 20 21 20 20 20 20 21 22 22 23 25 26 25 25 24 24 25 25 23 21 21 21 20 20
14 14 14 15 17 19 19 19 19 18 17 16 15 16 17 19 20 21 22 23 24 24 24 22 22 21 21 22 23 24 25 24 24 23 23 24 24 24 25 25 26 26 25 24 22 22 21 21 23 25 25 26 27 27 27 26 25 23 22 23 25 25 24 22 20 20 20 19 20 21 20 21 21 21 23 25 25 25 24 24 24 23 22 21 20 20 20 20
12 12 14 16 19 19 19 19 19 18 17 16 15 16 18 19 21 22 22 23 23 24 23 21 21 21 21 21 21 23 24 22 23 23 22 23 22 22 24 25 26 26 26 24 23 23 22 21 22 25 24 25 27 26 25 26 26 25 24 25 24 22 21 21 20 20 20 19 20 20 20 21 20 21 22 23 24 24 24 24 24 22 21 20 20 20 20 20
12 12 14 18 21 20 19 19 18 18 17 16 15 17 19 19 21 22 22 22 23 23 22 22 22 22 22 22 21 22 23 22 23 23 22 23 22 21 23 24 25 25 25 24 23 23 23 21 21 24 24 24 25 24 22 23 25 25 25 25 24 22 21 21 21 20 20 20 20 20 20 20 21 21 22 23 24 24 24 23 23 22 21 20 20 20 20 20
13 13 16 20 21 21 20 19 18 18 17 16 16 17 19 20 21 22 23 23 23 23 22 22 22 22 22 22 22 22 23 23 23 22 22 23 22 21 22 24 24 24 25 24 23 23 23 21 20 22 23 23 22 23 23 23 24 24 23 22 23 22 21 21 21 21 20 20 20 20 19 19 21 21 21 23 24 24 23 23 22 21 20 20 20 20 20 19
12 14 17 20 21 21 21 19 18 17 17 17 17 18 19 20 21 22 23 24 24 24 23 22 22 22 22 22 22 23 23 23 23 22 21 22 22 21 22 24 24 24 24 23 23 22 21 21 20 20 21 21 21 23 24 24 24 23 22 22 22 22 20 20 20 20 20 20 20 19 18 19 21 21 22 23 23 23 23 22 21 21 20 20 19 19 20 19
12 14 17 21 21 21 20 18 18 18 17 17 18 19 20 21 21 22 23 24 24 24 23 23 22 22 22 22 22 23 23 22 22 22 21 21 21 21 23 24 24 24 23 22 21 21 21 21 20 20 20 21 22 23 24 24 24 24 24 23 23 22 20 20 19 19 20 20 20 19 18 20 21 21 22 22 21 22 22 21 21 21 20 19 19 19 19 19
13 14 17 20 21 21 19 17 17 18 18 18 19 20 21 21 21 22 23 23 23 23 23 23 23 23 23 23 23 23 22 22 22 22 22 22 21 22 23 23 23 23 22 21 20 20 21 21 20 19 20 21 22 23 24 24 24 23 23 23 23 22 21 21 20 20 20 20 20 19 18 20 21 21 21 21 21 21 21 20 20 20 20 19 19 19 19 19
13 14 16 19 21 21 18 17 17 17 18 19 20 20 21 22 22 22 23 23 22 23 22 22 23 22 22 22 22 22 22 21 21 22 23 22 21 22 23 23 22 21 21 20 20 20 20 20 19 19 18 19 20 21 21 22 22 21 21 22 23 23 22 21 21 20 20 20 20 20 19 19 21 21 22 22 21 20 20 20 20 19 19 19 19 19 19 19
13 14 16 18 20 20 18 18 18 17 18 18 19 19 20 21 22 23 23 23 23 22 21 22 22 22 22 22 22 22 22 21 21 22 22 21 21 22 23 23 21 20 20 21 21 21 20 19 19 18 17 17 18 19 19 20 20 20 21 21 22 22 21 21 20 19 19 19 20 20 19 19 21 21 22 22 21 20 20 20 20 19 19 19 19 19 19 19
14 14 15 16 17 18 18 19 19 18 18 18 18 19 19 19 21 22 22 22 22 22 21 21 22 22 21 21 21 20 21 22 21 21 22 21 21 22 23 22 20 20 20 21 21 21 19 19 19 18 17 17 18 18 20 20 19 20 20 21 21 21 21 20 20 19 19 19 19 20 19 19 20 20 21 21 21 21 20 20 20 20 19 18 17 17 18 19
14 14 13 12 13 16 17 18 18 18 18 18 18 18 19 19 20 21 21 21 21 21 20 21 21 21 20 20 20 20 20 20 21 20 20 20 20 22 22 21 20 20 21 21 21 20 18 18 18 18 18 18 19 19 20 20 20 20 20 20 20 20 20 20 19 19 19 19 19 19 20 19 19 19 20 21 21 21 20 19 19 19 19 18 16 15 17 19
13 13 13 12 12 14 14 16 17 17 18 18 18 18 18 18 18 19 20 20 20 20 19 19 20 20 19 19 19 19 19 19 19 18 17 17 19 20 21 20 20 20 21 20 20 20 18 17 18 18 18 19 19 19 20 20 20 20 20 20 20 20 20 19 19 19 19 19 18 19 20 19 18 18 19 19 20 20 19 18 18 18 18 17 16 17 18 19
11 11 12 12 12 13 13 15 17 17 17 17 17 17 18 17 18 18 18 18 18 19 18 17 17 18 18 18 17 16 17 17 16 16 17 17 17 18 19 19 19 20 20 20 20 20 18 17 18 18 18 18 18 18 19 19 19 19 19 19 20 19 19 18 18 18 19 18 18 18 18 18 17 17 17 18 18 18 17 17 17 17 18 17 17 18 19 18
10 10 11 11 11 13 13 14 15 16 16 15 16 16 17 17 16 17 18 18 17 17 17 16 15 16 17 16 15 14 15 15 15 16 16 16 17 18 18 18 19 19 20 19 19 19 18 17 18 18 16 16 17 18 18 18 19 18 19 19 19 19 18 18 18 18 18 17 17 17 17 16 16 17 17 17 17 17 17 16 16 16 16 17 17 17 17 17
9 10 10 10 10 13 14 14 15 15 14 14 15 16 16 16 15 16 17 17 16 16 16 15 14 15 15 14 13 13 14 15 15 16 17 16 17 17 18 18 19 18 18 19 18 18 17 17 17 17 15 15 17 17 17 17 17 17 17 17 18 18 17 17 17 17 17 17 16 16 16 15 16 16 16 16 17 17 16 16 16 16 15 15 15 15 15 15
9 9 10 10 11 13 14 15 15 14 14 14 15 15 16 15 15 15 15 15 16 15 16 15 14 14 13 12 13 13 14 15 15 16 17 17 17 18 18 18 19 18 18 18 18 17 17 17 17 16 15 15 16 17 16 16 15 15 15 15 16 17 17 17 17 16 16 16 15 15 15 15 15 14 15 15 16 17 16 16 16 15 15 15 15 14 14 14
Height
791 790 790 789 788 788 787 786 785 784 784 783 782 781 780 780 779 778 778 777 776 775 775 774 773 772 771 770 769 767 766 764 762 763 760 752 750 753 753 755 755 755 757 757 758 759 758 759 758 758 759 759 759 757 756 753 751 756 764 773 777 774 768 757 751 746 742 741 735 730 727 731 733 726 720 720 723 727 733 735 734 734 733 735 740 745 751 757
790 789 788 788 787 786 786 785 784 783 783 782 781 780 779 778 778 777 776 775 775 774 774 773 772 771 770 769 768 767 765 763 762 760 752 747 750 752 752 754 754 755 756 757 757 757 758 758 756 757 759 760 758 756 757 753 751 759 764 770 771 765 756 746 743 740 738 739 734 729 728 729 730 728 724 729 733 731 741 746 741 743 743 741 743 748 753 757
789 788 787 786 786 785 784 783 783 782 781 781 780 779 778 777 777 776 775 774 773 773 773 772 771 770 769 768 767 767 765 763 761 754 745 744 748 749 751 753 753 755 755 756 756 756 757 755 754 755 758 761 758 756 758 754 753 756 760 769 765 754 749 742 739 739 736 733 732 731 728 728 728 726 726 733 736 734 743 749 748 751 751 748 747 748 753 756
788 787 786 785 784 784 783 782 781 781 780 779 778 778 777 776 776 775 774 773 773 773 772 771 770 769 768 767 767 766 765 763 757 747 743 744 745 747 749 751 752 754 754 754 755 756 755 754 753 753 757 761 758 755 757 754 753 753 756 764 757 749 750 742 737 737 733 729 732 733 731 732 728 725 728 732 738 740 741 743 745 749 749 749 749 748 751 755
787 786 785 784 783 782 781 781 780 779 779 778 777 776 776 775 775 774 773 773 772 772 771 770 769 768 768 767 766 766 765 764 752 742 743 743 744 746 748 750 751 752 753 754 755 755 755 754 753 753 757 760 758 757 757 750 748 752 752 753 749 748 750 740 734 735 731 729 732 734 735 734 728 728 729 731 740 742 737 735 738 743 744 745 747 748 750 754
786 784 784 783 782 781 780 779 779 778 777 776 776 775 774 774 773 773 773 772 771 770 770 769 768 768 767 766 766 765 766 760 747 742 743 742 744 745 747 749 750 751 753 754 755 755 755 754 754 756 757 758 759 758 755 746 744 753 752 746 745 744 745 738 732 732 729 730 735 735 733 731 732 734 728 729 737 736 729 730 736 741 744 746 747 750 753 757
785 783 783 782 781 780 779 778 777 777 776 775 775 774 773 773 772 772 772 771 770 769 769 768 767 767 766 765 765 766 767 756 743 743 743 742 745 745 747 748 749 751 752 753 754 755 755 754 755 755 757 758 757 755 751 745 743 751 752 745 742 739 739 735 732 731 729 731 732 730 731 732 736 736 728 731 736 732 729 730 737 743 746 751 754 758 760 761
784 783 782 781 779 778 778 777 776 775 775 774 773 773 772 772 772 771 771 770 770 769 768 767 767 767 766 765 764 765 764 752 741 743 743 743 744 744 747 747 748 750 751 753 753 753 754 754 753 752 757 757 753 751 747 746 746 747 748 743 739 737 735 732 731 730 730 730 729 730 734 734 733 731 730 734 737 731 730 734 739 744 748 755 761 765 766 766
783 782 781 780 778 777 776 776 775 774 773 773 772 772 771 771 771 770 770 770 769 769 768 767 767 766 766 766 765 764 754 743 740 742 742 743 744 744 746 746 748 749 751 752 751 752 754 753 750 748 754 752 749 748 745 749 750 742 740 738 737 737 733 732 731 730 730 729 730 734 738 734 728 730 733 733 735 732 730 737 741 746 752 758 764 766 767 767
782 781 780 778 777 776 775 775 774 773 772 772 771 771 770 770 769 769 769 769 768 768 767 767 767 766 767 765 767 764 747 739 742 742 742 743 743 744 745 746 747 749 750 750 749 750 750 749 745 742 747 748 747 746 744 748 745 735 734 735 734 735 732 732 732 729 730 729 731 736 739 733 726 734 739 732 731 732 732 741 745 749 756 760 764 766 766 767
780 780 779 777 776 775 774 774 773 772 771 771 770 770 769 768 768 768 768 768 768 768 767 767 766 767 767 766 769 763 744 739 741 740 743 743 743 744 744 746 746 748 749 748 748 746 745 744 740 741 747 747 745 744 741 739 736 732 733 736 735 735 733 732 732 730 731 732 729 732 736 733 729 736 737 729 728 730 735 745 748 752 758 761 764 766 766 767
779 779 778 776 775 774 774 773 772 771 770 770 769 768 768 767 767 767 767 767 767 767 767 767 767 767 767 767 766 754 740 740 741 740 743 743 744 745 744 746 746 746 747 746 745 742 742 739 738 744 746 744 746 747 741 733 733 733 733 741 741 737 738 734 732 730 732 733 726 729 741 740 735 734 728 723 725 727 737 747 749 753 758 761 763 765 767 768
779 777 776 775 774 773 773 772 771 770 769 769 768 767 767 766 766 766 766 766 766 767 767 767 767 767 769 764 752 743 739 741 741 740 743 743 744 745 744 745 745 745 745 744 743 740 740 738 738 743 742 744 748 745 739 733 734 735 735 742 746 748 745 735 731 731 731 732 722 731 753 750 736 729 722 721 723 727 738 747 751 755 757 760 763 766 768 767
778 776 775 773 773 773 772 771 770 769 769 768 767 767 766 765 766 765 765 765 765 766 766 767 767 767 769 758 742 739 740 740 741 741 742 743 744 744 744 744 744 744 743 743 742 739 738 736 737 741 741 744 744 740 740 739 737 739 742 744 748 758 752 734 731 732 733 730 720 732 756 751 736 729 721 720 723 728 738 746 750 754 757 759 762 765 767 767
776 775 773 773 772 771 770 770 769 768 768 767 766 766 765 765 765 764 765 765 765 766 766 766 767 767 768 756 740 739 740 739 741 740 741 743 743 743 743 743 743 742 742 742 740 739 737 736 740 745 745 741 742 747 750 749 743 742 753 756 753 757 751 735 730 729 732 729 720 733 753 747 735 730 720 717 722 728 737 744 749 752 754 758 760 763 766 766
775 774 772 771 771 770 769 769 768 768 767 766 766 766 765 765 764 764 764 763 765 765 766 767 766 767 767 754 741 738 738 739 739 739 741 741 741 741 741 742 742 742 742 740 739 739 737 738 742 745 746 745 748 753 755 758 754 746 754 761 755 754 751 741 729 721 724 727 725 732 745 742 733 729 721 717 723 729 737 744 747 750 752 755 758 760 764 766
774 773 771 770 770 769 768 768 768 767 766 766 765 765 765 764 763 764 763 764 765 764 765 766 765 768 761 746 741 740 736 737 737 738 739 739 740 740 740 741 741 741 740 739 740 739 738 741 745 746 747 749 750 755 765 772 768 756 753 756 752 749 747 743 731 719 719 726 730 732 736 737 733 727 723 718 721 730 738 743 746 749 752 754 756 758 762 763
773 772 771 770 769 768 768 767 767 766 766 765 764 764 764 763 763 763 763 764 764 765 767 765 767 771 758 742 741 738 733 735 736 736 738 738 738 739 739 739 739 740 741 743 741 741 743 743 746 751 752 753 752 758 772 773 764 760 757 755 752 746 742 740 733 722 720 725 732 736 737 736 733 728 725 720 721 733 740 742 745 748 752 754 755 757 760 761
773 771 770 769 768 768 767 767 766 766 765 764 764 764 763 762 762 762 763 764 765 765 763 760 761 760 747 735 733 732 731 732 734 736 736 736 737 738 737 737 738 740 746 750 747 743 745 747 751 759 760 757 753 753 760 757 750 752 752 751 753 749 738 730 726 718 718 727 733 736 738 738 735 730 726 722 723 734 740 742 747 749 751 753 754 756 757 759
773 771 770 768 768 767 766 766 766 765 764 764 764 763 763 762 761 762 763 763 760 755 750 749 750 746 737 731 729 730 731 732 733 734 735 735 736 737 736 737 739 742 747 751 750 743 744 755 760 760 758 753 748 746 745 744 743 745 747 749 749 747 736 721 719 716 714 728 735 732 734 734 733 730 726 723 726 735 741 744 749 750 752 754 755 755 755 756
773 771 769 768 767 766 766 765 765 765 764 764 764 764 763 760 761 761 759 757 751 746 745 742 742 742 735 730 728 728 731 734 734 732 734 734 734 739 740 739 745 749 747 746 747 742 745 759 759 751 748 744 742 741 740 741 742 744 747 750 749 747 739 723 721 720 713 726 736 731 733 733 732 732 729 725 728 735 738 741 746 748 752 754 753 755 755 756
773 771 769 768 767 766 765 765 765 764 764 764 764 764 760 755 756 754 753 754 747 741 742 738 737 738 730 727 727 726 730 737 737 733 732 732 735 742 743 742 749 751 745 744 748 750 754 758 749 741 739 738 738 737 738 741 742 745 747 751 753 746 740 730 726 723 717 726 736 734 737 738 733 730 729 727 726 728 732 734 738 742 748 753 753 754 756 757
774 771 769 768 766 766 765 764 764 763 762 762 762 761 756 752 752 750 752 757 749 737 736 735 736 736 729 725 724 725 731 736 738 734 729 732 736 740 742 744 748 747 745 746 751 757 760 751 738 734 735 735 738 736 738 742 744 747 747 753 755 745 746 747 736 729 725 728 734 736 739 739 734 730 727 726 722 722 727 730 732 736 741 747 749 750 753 756
773 771 770 767 766 766 764 764 763 761 761 760 759 756 752 751 752 752 752 756 751 737 729 728 728 730 727 722 720 725 731 730 732 731 726 731 736 737 741 743 745 747 745 742 744 751 750 738 729 731 733 734 740 739 740 746 750 749 746 749 751 743 746 749 739 733 732 733 732 737 749 745 737 736 734 728 723 723 726 726 727 728 733 740 744 747 749 751
773 771 769 767 766 765 764 764 761 760 761 759 756 751 750 752 751 751 753 759 756 737 726 724 723 723 720 719 720 721 726 727 725 724 722 726 732 735 738 737 741 747 743 737 740 745 741 730 726 732 734 734 739 741 740 746 753 752 745 742 742 740 741 743 739 738 747 751 738 740 766 763 740 738 739 730 725 726 726 724 724 725 728 737 743 746 747 748
773 771 769 767 766 764 765 762 759 760 760 757 753 750 751 752 751 751 755 768 764 738 727 726 723 721 717 718 719 718 730 730 718 716 718 722 724 728 736 736 735 739 736 732 736 738 734 727 726 732 735 736 741 743 739 741 753 757 744 735 735 736 739 742 742 747 758 761 742 739 766 772 752 742 739 732 728 729 728 725 725 726 728 734 741 743 745 747
773 770 768 767 765 764 764 760 758 759 758 755 751 751 752 750 751 751 758 779 768 732 725 727 722 720 717 716 715 723 739 730 714 714 714 719 721 722 735 738 735 735 728 732 742 737 729 729 730 731 734 739 744 746 739 736 751 755 738 731 735 736 738 740 741 748 752 749 744 740 752 768 766 749 736 733 735 734 732 729 727 727 727 731 738 742 743 745
772 769 768 766 764 764 763 760 760 757 756 754 750 752 751 749 751 752 768 788 761 722 721 724 718 716 715 714 714 722 730 721 722 721 709 715 722 722 734 736 735 735 726 735 751 738 726 731 731 730 736 742 742 740 735 735 746 744 731 730 734 734 737 737 740 747 744 748 760 752 747 767 771 749 735 734 738 740 736 731 728 727 728 729 734 740 741 742
771 769 767 765 764 763 761 762 760 756 754 752 752 753 750 750 752 757 777 782 745 717 720 720 717 718 717 718 718 721 720 718 725 722 710 717 720 720 732 731 731 736 729 732 742 733 724 725 724 728 737 740 737 732 730 734 739 734 728 730 731 733 737 738 744 748 748 760 771 758 750 769 774 752 741 741 741 742 737 731 727 728 731 732 735 740 742 742
769 767 765 764 763 762 761 761 757 754 752 752 754 752 750 754 758 773 790 773 738 722 720 721 722 720 720 725 725 723 723 721 719 716 716 719 718 719 724 724 727 735 733 731 732 726 720 717 718 724 730 730 729 729 727 729 730 727 729 733 736 738 739 741 745 747 759 773 770 756 749 764 777 760 745 744 740 737 736 733 731 730 732 734 738 742 744 746
766 766 764 762 762 762 762 759 754 753 753 753 754 751 754 759 765 784 786 752 733 729 720 723 725 717 720 728 729 725 724 724 718 719 723 722 724 726 728 731 733 738 742 739 734 726 721 723 723 720 720 722 726 729 727 724 724 727 733 739 749 753 750 754 755 754 773 782 766 754 750 761 777 765 743 738 733 730 733 732 733 735 734 735 739 741 744 747
764 763 762 760 759 760 759 755 752 753 754 753 753 752 760 770 775 782 768 743 744 741 723 723 723 717 720 724 727 725 724 725 720 720 725 728 732 731 734 740 740 747 755 748 741 735 729 728 724 721 718 719 728 735 733 728 725 730 736 744 760 770 770 775 775 771 780 777 759 755 762 768 771 755 740 736 730 728 729 728 731 734 735 736 738 740 743 747
761 759 758 757 756 755 753 752 752 754 754 752 754 755 765 782 780 768 756 749 750 738 722 721 718 716 720 724 727 723 722 726 721 721 724 726 733 733 732 732 732 744 752 748 747 747 743 732 723 725 724 719 727 738 743 739 733 736 739 748 765 777 786 792 786 780 781 774 758 755 765 772 765 751 742 738 731 728 727 728 732 733 733 736 737 740 744 747
757 756 754 753 752 750 750 751 751 753 753 752 757 762 773 785 773 756 752 748 738 726 721 722 718 716 717 721 724 720 723 727 719 721 725 725 733 737 734 730 727 733 740 745 749 749 756 751 732 728 728 724 724 729 736 736 735 737 733 740 755 764 778 788 785 784 784 777 766 761 767 773 768 756 744 736 732 731 731 731 732 733 733 736 738 742 746 748
755 753 751 749 748 747 746 749 750 752 754 754 760 770 777 778 765 755 752 742 730 724 720 717 718 723 723 718 716 713 720 727 720 719 724 726 733 735 733 730 725 727 737 750 750 744 753 753 729 720 721 721 724 722 720 729 739 737 727 737 751 750 757 770 773 773 775 778 774 767 766 761 756 750 737 731 732 732 734 734 733 736 737 739 744 747 749 751
752 750 749 746 744 743 744 746 748 750 753 757 766 773 771 764 754 750 742 730 726 724 721 720 722 731 733 724 719 715 713 720 722 724 725 724 726 727 726 724 719 721 731 742 747 745 752 748 726 719 720 716 720 720 716 727 741 738 735 743 742 733 741 761 771 765 769 785 780 766 764 756 752 751 737 732 735 733 736 737 735 739 741 745 750 750 752 754
751 748 747 743 740 740 742 743 746 749 752 758 769 769 760 750 743 738 731 723 721 718 723 733 735 737 739 734 729 721 717 720 722 726 730 727 727 725 720 717 714 716 721 729 739 742 748 750 732 724 728 718 711 717 717 719 728 738 744 741 732 732 739 753 771 775 778 790 779 765 767 763 761 762 746 737 739 738 738 738 737 742 745 749 753 753 754 756
750 748 745 738 735 737 740 742 744 748 752 760 767 762 752 745 737 731 727 723 722 720 725 736 738 736 737 739 738 725 722 729 726 726 731 730 732 729 721 717 713 713 716 723 735 736 740 753 741 724 729 722 711 721 728 721 720 729 735 730 735 752 757 756 769 780 785 791 782 767 765 763 763 763 753 746 744 740 740 739 739 743 746 750 753 753 755 757
751 750 743 731 729 734 738 741 743 746 754 762 766 759 748 742 735 728 726 724 723 725 728 730 731 731 730 735 740 730 724 730 728 730 734 731 733 731 724 721 718 716 717 721 733 735 736 754 754 731 725 727 723 730 740 735 726 725 729 730 734 748 759 759 761 768 776 785 784 774 769 769 764 758 753 749 743 740 741 742 743 745 747 750 751 753 755 758
751 752 742 726 726 732 734 739 743 748 755 759 759 754 744 739 732 724 721 721 721 722 726 727 728 732 730 728 733 730 725 726 727 732 734 728 732 735 726 722 723 722 720 722 730 735 737 752 759 742 731 737 740 737 738 738 735 735 741 745 742 744 752 757 757 760 767 778 783 783 785 780 762 753 753 748 741 740 742 744 746 748 749 750 751 753 756 760
752 752 741 725 724 728 732 740 745 749 754 754 752 749 742 736 731 723 718 717 717 717 720 725 728 731 731 729 729 726 724 726 727 734 739 734 737 741 729 720 721 722 725 730 734 739 744 752 758 755 748 750 747 735 729 731 733 737 743 745 745 748 755 765 770 767 766 773 777 783 792 780 756 749 750 745 743 742 743 747 750 751 752 752 753 754 757 760
755 752 739 727 727 728 733 745 747 746 751 750 746 742 737 732 729 725 719 716 716 716 717 722 725 726 726 727 727 723 724 728 728 733 740 739 738 739 729 721 720 721 727 737 740 740 744 750 758 760 755 750 742 730 727 729 728 731 736 736 739 747 757 771 779 774 769 770 770 777 787 774 753 749 748 747 748 746 745 749 752 755 756 755 755 756 758 761
755 750 736 730 731 729 737 749 748 746 747 743 739 735 732 729 727 723 719 718 718 718 720 721 722 724 723 722 724 724 725 728 727 727 730 733 735 734 729 725 724 724 730 740 744 743 744 750 760 762 755 748 740 731 728 728 729 737 740 735 736 744 750 758 763 764 766 767 766 778 787 773 755 751 749 749 750 749 749 750 751 756 758 757 758 759 760 762
755 750 739 733 732 731 741 750 750 749 745 739 736 734 729 725 723 721 720 720 721 721 723 723 721 723 724 722 724 726 727 732 731 726 725 732 736 732 729 729 729 731 737 742 744 747 751 755 761 768 771 765 757 751 746 741 743 749 749 742 740 741 746 751 754 759 768 766 763 775 785 774 759 752 749 749 751 755 757 756 757 760 760 761 762 761 761 762
754 749 741 734 732 734 739 742 743 746 744 740 739 736 732 727 720 717 718 719 719 721 726 725 720 722 723 723 726 727 726 730 733 729 726 731 734 730 727 730 732 736 740 739 738 743 753 758 761 771 782 781 775 771 766 759 755 754 751 748 745 745 748 754 759 768 776 771 765 771 779 774 761 754 752 751 754 760 762 760 761 764 765 767 765 762 761 762
755 753 748 744 738 736 738 736 738 742 742 741 741 736 734 732 723 717 718 720 720 721 726 726 722 723 726 728 733 735 729 728 731 731 730 733 733 728 726 729 734 738 739 738 739 744 754 759 760 766 774 775 773 768 760 758 760 759 756 752 751 750 751 756 765 773 774 772 771 770 771 772 767 761 760 757 756 760 763 762 762 763 765 770 772 770 764 762
757 757 759 761 753 745 744 742 740 742 740 739 742 738 734 734 729 723 722 723 724 725 729 729 725 729 734 734 737 741 737 733 733 736 739 739 735 729 728 731 736 738 738 739 741 747 758 764 761 762 765 764 764 760 755 756 759 759 757 755 754 753 754 759 767 769 766 772 777 768 762 769 770 765 764 762 758 759 761 764 765 764 764 767 774 777 771 765
764 763 762 766 765 758 755 749 742 742 741 738 739 739 737 738 736 734 732 730 728 731 738 739 734 734 738 738 739 742 742 740 744 748 749 749 745 739 736 737 739 738 739 742 743 747 760 766 761 761 763 760 759 759 757 757 758 756 757 758 756 755 758 763 766 764 764 771 774 766 762 768 771 769 766 763 761 761 764 766 767 767 766 767 770 772 769 767
771 770 765 764 766 763 758 751 743 743 745 742 741 741 740 742 741 739 738 740 739 738 743 749 748 744 744 744 747 753 754 753 756 757 754 754 753 749 747 747 744 740 740 745 746 747 757 765 762 761 766 764 762 762 761 760 759 757 757 757 756 758 761 764 766 765 764 767 769 767 768 773 776 773 769 766 764 764 765 768 769 770 771 770 769 768 766 767
780 779 774 770 767 761 758 755 749 748 750 749 749 747 743 744 747 743 739 745 750 746 745 754 756 751 750 752 757 764 765 762 762 760 756 757 756 753 752 752 749 745 745 748 750 750 757 764 762 762 770 772 766 764 764 762 762 762 760 758 759 761 762 763 765 767 767 770 771 770 775 780 777 771 769 768 766 765 766 770 772 774 775 774 774 773 770 768
784 782 780 779 773 763 758 756 752 753 757 756 754 752 749 752 754 750 745 747 754 754 752 757 760 757 758 762 765 767 766 762 762 758 754 756 756 753 753 750 748 751 751 750 753 755 759 764 763 766 778 779 770 768 768 766 767 768 767 766 764 764 766 767 768 770 770 772 774 775 780 783 778 771 771 770 768 769 771 773 774 776 776 777 778 779 778 774
783 780 778 779 776 765 758 756 755 758 762 762 758 755 755 758 757 756 757 755 755 756 757 758 761 763 767 771 771 769 766 762 760 756 753 753 752 750 750 748 747 751 754 753 755 757 759 764 766 770 780 780 772 770 772 773 778 779 777 776 771 766 768 769 770 774 774 774 779 783 784 782 779 777 777 775 773 772 773 774 776 777 777 777 779 780 781 779
Wind_Speed
12 11 11 12 12 11 11 11 11 12 12 12 12 12 12 12 12 11 11 12 11 11 11 11 12 12 12 13 14 14 16 16 14 11 12 17 15 9 8 9 5 4 8 9 10 8 8 9 12 14 12 8 4 3 6 5 4 4 2 4 4 5 6 6 8 7 3 1 4 4 6 6 5 4 4 4 3 2 7 10 7 8 9 13 22 32 34 32
13 12 12 12 12 12 11 11 11 11 11 12 12 12 12 12 12 12 12 12 11 11 11 11 12 12 12 12 12 13 15 16 14 15 19 18 14 12 13 13 7 4 8 11 11 10 8 7 10 12 7 3 3 4 5 3 4 4 2 4 5 6 7 9 12 8 6 3 2 3 5 3 4 5 3 3 2 1 8 9 10 14 14 17 26 31 32 31
13 13 13 12 12 12 12 12 12 12 11 11 11 11 11 11 11 12 12 12 11 11 11 12 12 12 12 12 11 11 14 14 9 12 14 11 15 17 17 18 13 9 10 12 13 14 13 12 12 10 5 4 4 4 5 4 4 5 4 4 5 6 8 11 13 9 8 4 3 4 5 3 4 5 2 2 5 4 5 9 10 14 15 16 20 24 28 27
13 13 13 13 12 12 12 12 12 12 12 11 12 12 11 11 10 11 12 11 11 11 11 11 11 11 11 10 10 10 11 8 3 7 5 4 13 16 17 18 14 12 13 14 14 15 17 17 13 8 5 5 5 5 6 4 3 4 5 6 6 6 8 12 13 10 7 3 5 5 6 5 6 5 2 2 5 5 2 9 13 15 18 18 17 19 22 20
14 13 13 13 13 13 13 12 12 12 12 12 12 12 12 11 11 11 12 11 11 11 11 10 11 11 10 10 8 9 7 2 1 4 2 5 10 13 17 17 14 13 14 13 12 14 17 16 12 7 5 4 5 5 6 7 6 4 5 8 9 8 9 12 12 7 6 6 6 5 5 4 5 5 1 3 0 3 1 8 16 17 17 18 17 16 16 16
14 13 13 13 13 13 13 13 13 12 12 12 12 12 12 11 11 11 11 11 11 11 10 10 10 9 10 9 6 6 3 1 4 3 4 7 9 11 15 15 14 13 11 10 10 11 13 12 9 6 4 4 6 6 7 8 7 5 5 7 9 10 10 10 10 4 4 5 6 4 5 4 5 5 2 1 1 3 6 13 17 14 13 14 14 13 13 14
14 14 13 13 13 13 13 12 12 12 12 12 12 12 12 11 11 11 11 11 11 11 10 10 9 8 10 8 3 2 1 5 10 5 5 7 10 11 12 12 12 12 10 9 10 10 9 10 8 4 4 5 6 7 9 9 8 7 6 7 9 10 10 9 9 5 2 2 2 4 6 7 6 4 3 1 8 12 15 18 17 14 13 12 10 10 10 12
14 14 13 14 13 13 13 13 12 12 12 12 12 12 11 12 11 11 11 10 10 10 9 9 8 7 9 8 2 1 2 8 10 6 7 7 10 11 12 11 11 11 11 12 11 10 9 10 8 4 5 5 6 8 10 9 8 8 8 8 9 9 10 8 9 8 2 3 1 3 6 9 8 4 5 1 12 17 18 19 18 16 15 13 10 10 10 11
14 14 14 14 14 13 13 13 13 12 12 12 12 11 11 11 11 11 10 10 10 9 9 8 7 6 6 6 3 2 3 6 6 6 5 7 9 11 13 12 12 12 11 14 15 13 9 7 7 6 6 6 7 8 8 6 5 8 10 9 7 7 9 10 10 8 4 1 1 4 8 9 8 5 6 4 12 17 19 19 17 16 15 13 11 10 10 11
14 14 14 14 14 13 13 13 13 13 12 12 12 12 12 12 11 11 10 10 9 8 8 7 5 4 4 5 2 2 4 4 5 3 3 6 9 12 14 11 13 13 11 13 15 14 10 9 9 6 7 6 6 9 8 6 5 6 7 6 6 6 8 10 10 6 4 4 5 6 8 9 8 5 6 4 13 18 19 18 16 15 13 13 12 10 10 10
14 14 13 14 13 13 13 13 13 13 13 12 12 12 12 12 11 11 10 9 8 8 8 6 5 4 5 5 1 2 5 3 5 4 4 6 9 14 15 12 14 16 14 13 15 19 17 17 12 4 4 3 4 8 7 7 8 7 5 5 7 6 7 9 7 5 4 5 8 9 8 9 7 6 7 5 14 20 20 18 16 16 13 13 13 11 9 8
14 14 13 14 13 13 13 13 13 13 13 13 13 13 12 12 11 10 10 9 8 7 6 5 4 3 5 4 5 8 7 3 6 9 7 6 9 12 12 12 14 17 16 12 15 20 19 18 10 3 3 4 4 4 5 8 7 8 6 3 7 6 8 10 6 6 5 4 8 9 7 9 7 7 11 7 13 19 20 17 15 15 12 12 12 10 8 8
14 14 13 13 13 12 13 12 13 13 13 13 13 13 13 12 11 10 9 8 7 6 4 5 2 2 4 2 8 9 6 6 7 11 9 7 8 10 10 11 14 18 21 16 16 18 17 15 7 4 5 6 5 3 7 10 5 7 5 2 4 5 7 9 6 7 7 6 7 7 4 7 9 10 9 8 14 18 19 17 14 13 11 10 10 9 8 8
14 14 13 13 12 12 12 12 12 13 13 14 13 13 13 13 12 10 9 8 6 4 3 3 1 1 1 5 12 11 6 6 7 10 9 10 11 12 13 15 15 18 21 19 19 18 16 10 4 4 5 5 5 6 8 8 5 4 4 2 3 3 7 7 7 9 9 7 7 8 3 7 10 8 6 13 17 17 15 16 14 11 10 10 10 10 9 8
15 14 13 13 12 11 12 11 12 12 12 14 13 13 12 12 11 8 8 7 5 2 2 3 2 1 2 7 14 11 9 7 7 10 11 13 14 13 13 15 14 14 15 16 17 17 15 7 4 3 4 6 6 6 5 4 4 2 1 4 3 4 8 7 8 12 11 8 8 9 4 7 7 5 9 12 16 17 13 15 15 12 12 10 10 10 9 7
15 14 13 12 11 11 10 11 11 11 12 14 13 13 11 11 9 6 6 5 3 1 1 2 5 5 2 4 7 5 9 8 9 12 13 16 16 13 12 12 11 11 14 15 14 14 10 3 2 3 4 6 5 5 4 4 5 2 4 5 5 6 8 7 9 15 14 8 8 9 4 5 4 5 7 8 13 16 13 14 15 13 12 11 9 9 8 7
16 14 13 12 11 10 10 10 10 11 12 13 12 11 9 9 8 5 4 2 1 1 4 4 3 4 4 6 6 4 8 11 13 15 15 16 18 15 12 9 8 11 12 12 12 10 5 3 2 3 3 4 4 3 4 4 5 3 3 6 6 7 7 5 7 12 13 7 7 8 6 6 3 2 7 6 8 13 13 14 14 12 11 11 10 10 9 9
17 15 12 11 10 10 10 9 10 11 11 11 10 9 8 8 7 5 3 1 2 1 5 8 5 1 4 9 7 6 11 15 14 15 16 16 18 18 13 10 7 8 7 6 8 6 2 2 2 2 3 3 4 3 3 5 4 3 4 4 6 8 6 6 6 7 11 9 6 8 7 6 2 3 8 7 7 15 14 12 12 11 10 11 11 11 9 9
20 16 13 11 10 10 9 9 10 10 11 11 9 8 9 7 5 3 1 2 2 0 2 4 5 2 3 7 11 12 11 15 14 13 16 16 16 16 12 11 7 6 5 3 5 5 3 1 2 3 4 5 6 7 7 5 3 4 4 3 5 7 7 7 9 9 10 8 6 8 8 7 5 6 8 7 8 16 15 11 10 9 10 9 9 9 10 11
23 19 15 12 10 9 9 10 10 10 11 10 7 6 6 4 2 0 3 4 5 7 7 5 8 6 9 5 8 13 9 13 11 10 15 15 12 10 7 6 6 5 5 4 5 5 4 3 4 6 7 9 9 7 6 3 2 4 5 5 7 7 7 3 7 10 7 5 5 7 6 7 6 7 8 6 9 15 16 13 10 9 9 9 9 10 11 11
25 22 18 13 10 9 9 10 10 9 10 7 5 3 2 4 3 2 1 6 10 14 14 12 12 12 15 12 7 12 8 7 6 8 15 13 8 5 2 4 5 4 5 6 5 3 4 5 7 9 10 10 7 4 3 2 4 4 5 5 8 7 6 6 6 5 4 6 1 1 1 6 5 4 6 5 9 13 17 16 14 14 11 9 11 11 11 8
26 24 21 15 10 8 8 10 9 10 10 5 2 2 4 9 8 8 5 4 8 12 15 17 16 13 18 23 15 13 7 5 6 7 13 12 7 4 4 6 5 5 5 6 5 3 4 6 9 11 10 6 3 2 4 5 5 4 4 4 6 6 4 6 5 4 5 5 1 6 6 6 6 6 7 2 7 9 14 17 16 16 13 11 11 11 11 10
25 24 23 18 12 9 8 9 9 11 12 7 6 6 8 13 12 12 7 4 7 10 12 14 15 12 15 19 15 15 6 6 7 8 13 13 6 6 5 6 7 7 6 6 6 4 4 7 11 11 8 4 2 3 6 6 4 2 2 2 5 7 4 5 3 4 4 3 3 6 6 6 6 7 9 4 4 6 10 14 14 15 15 14 13 12 14 13
25 24 24 20 15 10 8 10 11 13 14 11 13 14 12 16 11 8 4 2 5 8 10 12 13 11 13 13 9 12 6 6 7 8 15 13 6 6 6 6 7 7 7 9 10 8 7 7 6 6 6 5 4 2 4 3 3 4 5 3 5 8 4 2 3 2 4 5 4 6 6 6 5 5 7 6 0 5 7 10 11 11 11 14 14 12 15 15
24 24 23 22 16 10 10 11 9 11 10 9 16 18 13 11 7 7 5 2 4 5 7 11 9 10 15 13 8 9 6 6 7 8 15 16 9 6 6 6 5 6 8 11 10 8 9 6 5 6 3 2 4 2 3 4 1 4 5 6 7 9 7 3 3 4 5 5 2 4 3 5 6 5 7 7 4 1 5 7 8 7 8 13 15 13 14 15
24 24 23 22 17 10 8 6 5 9 9 9 15 16 6 3 5 8 4 1 4 3 5 6 5 9 13 10 7 7 5 6 10 11 15 18 15 7 5 4 3 7 9 8 4 3 5 4 5 6 4 4 4 1 1 5 2 3 4 5 5 7 8 6 2 3 3 2 3 5 5 4 6 5 7 7 6 4 4 6 7 6 7 11 14 13 13 11
23 23 23 22 19 10 4 5 9 11 8 10 16 15 6 6 9 7 4 1 4 3 5 2 3 7 9 9 9 5 3 6 8 11 14 18 14 6 5 5 3 6 5 1 2 2 2 3 3 5 5 2 1 3 4 4 3 3 4 2 5 7 7 6 3 1 3 2 2 2 6 2 4 6 7 6 6 6 5 5 7 7 7 10 12 12 12 12
22 23 22 22 21 11 8 10 12 10 8 11 17 16 11 12 10 4 4 1 2 2 4 1 2 4 4 8 10 5 5 8 3 6 14 20 13 3 5 8 6 6 7 2 4 5 2 4 4 5 4 2 3 4 6 5 4 6 6 4 3 5 5 5 3 3 2 2 2 4 4 3 4 6 7 7 6 5 6 7 7 6 5 7 11 14 13 12
22 23 22 22 20 12 9 11 10 8 10 10 13 15 13 12 8 4 2 0 1 1 2 2 2 3 2 5 8 6 7 7 2 4 12 16 12 4 3 6 5 7 9 6 6 5 3 4 6 5 4 3 4 6 7 6 6 7 5 2 1 4 6 6 3 2 1 3 3 6 0 2 4 5 5 5 5 3 4 6 6 7 7 7 9 12 10 8
22 21 22 22 17 9 7 11 12 10 11 9 11 14 11 8 4 3 0 1 2 2 3 2 1 4 5 6 7 8 8 6 4 6 7 6 6 4 1 2 2 4 6 6 5 5 4 2 3 3 4 4 3 4 7 8 7 5 3 1 2 2 4 5 3 2 4 2 4 6 3 2 3 5 4 2 3 4 5 4 6 7 10 11 10 10 8 6
23 21 21 22 16 7 4 7 9 11 11 7 10 11 6 4 2 2 1 2 3 2 3 2 3 6 8 7 5 7 8 8 5 6 5 2 2 3 0 2 2 2 4 6 5 4 4 1 1 2 5 3 2 4 5 7 5 1 3 3 3 3 3 3 4 4 3 3 5 3 3 2 3 4 5 4 3 1 4 5 6 8 9 10 10 9 8 9
24 21 20 21 18 13 10 11 8 10 11 8 8 5 2 2 1 3 2 3 3 4 2 1 5 7 8 8 5 6 7 6 5 3 4 3 3 4 3 3 3 1 3 5 4 4 5 4 3 2 4 4 2 2 5 6 5 2 2 5 4 2 3 2 3 2 1 5 4 2 5 2 5 5 5 4 2 2 4 5 8 10 10 10 10 9 9 10
24 22 21 19 19 19 18 17 14 9 9 8 5 2 2 1 2 4 3 2 2 4 3 4 6 7 9 8 6 7 7 5 5 4 5 6 6 5 6 8 7 4 3 3 3 2 4 6 4 2 1 4 4 2 1 3 4 2 2 4 3 1 0 1 2 1 2 4 4 3 5 1 4 3 6 7 4 2 6 8 9 10 10 10 9 9 10 10
25 23 20 18 19 21 19 18 16 10 8 7 2 1 1 3 3 3 3 3 5 6 4 6 9 7 8 8 7 8 7 6 8 7 7 6 5 4 6 8 9 5 4 2 1 1 2 5 5 3 1 6 6 4 6 4 3 4 4 5 4 4 4 3 2 2 3 3 5 1 4 2 3 3 8 8 1 7 8 9 8 8 8 9 9 10 10 10
25 20 17 16 18 21 18 15 14 11 6 4 0 1 3 3 3 3 3 5 6 7 7 7 7 7 6 6 7 9 7 6 9 7 5 6 5 5 5 5 8 6 3 2 2 2 2 4 6 5 5 8 5 3 5 2 2 4 2 4 4 4 5 3 2 4 3 0 3 2 1 3 2 4 9 4 6 10 9 9 9 7 8 10 10 9 9 8
23 19 16 15 18 19 16 14 14 13 6 1 1 3 4 4 4 3 3 5 6 5 4 4 4 4 5 2 4 8 7 6 7 5 2 3 5 6 6 5 7 7 5 4 1 1 2 5 6 2 7 9 5 2 2 3 1 3 2 2 4 5 7 4 1 1 2 2 3 3 2 3 1 3 6 2 5 7 8 9 8 7 9 11 9 8 8 8
24 18 11 13 18 18 14 12 14 14 6 2 3 4 4 4 7 7 6 9 9 6 5 2 1 3 4 2 4 6 5 5 5 5 1 1 2 4 6 7 7 6 5 6 1 1 2 3 6 3 2 4 5 2 3 2 4 1 2 1 1 3 5 4 1 1 1 1 4 3 3 3 2 3 4 2 4 4 6 8 8 8 10 11 9 8 9 8
21 12 10 18 23 20 15 12 16 13 4 2 4 4 4 5 7 9 9 10 10 8 3 1 2 4 1 2 6 6 2 3 1 2 1 2 3 3 5 2 5 5 6 8 3 2 2 2 6 5 5 4 2 2 4 3 2 1 3 2 2 3 0 1 2 2 2 2 3 3 4 2 2 3 3 2 6 6 6 7 8 10 11 10 9 9 10 9
12 5 6 14 16 16 18 18 16 8 3 3 4 3 4 6 9 11 13 11 10 7 3 1 1 4 3 2 5 7 2 2 0 0 1 2 4 3 6 3 2 4 7 7 3 1 2 1 4 5 6 7 5 1 2 3 4 3 3 3 1 4 3 1 2 3 3 3 2 3 3 2 1 3 3 2 4 4 5 7 7 9 10 10 9 9 9 8
7 1 4 12 13 13 20 20 12 4 3 4 4 4 5 7 9 12 13 11 7 3 1 2 4 2 2 4 6 6 4 3 2 1 2 1 1 3 3 1 0 2 5 6 3 1 3 2 2 6 7 6 4 2 2 2 0 1 1 2 2 1 2 1 1 0 2 2 1 0 1 3 4 3 4 4 4 2 4 7 6 6 8 9 9 9 8 8
5 1 5 11 5 16 20 12 4 2 3 3 4 6 7 7 9 11 12 11 5 2 3 4 5 4 4 2 3 5 3 2 2 0 3 4 5 2 4 3 2 4 4 4 2 2 2 2 1 3 5 3 5 7 5 3 1 1 2 2 1 1 3 3 3 3 1 2 2 3 1 5 5 1 4 6 5 5 6 8 7 5 6 8 9 10 9 8
2 1 8 4 17 24 13 4 2 3 3 4 5 7 8 8 9 10 10 10 5 1 0 3 4 5 4 2 3 3 1 1 3 4 4 4 3 4 5 6 4 5 5 4 2 2 2 3 2 1 3 4 8 10 10 9 7 2 2 2 3 3 4 4 1 2 1 1 2 3 2 5 6 2 5 7 9 7 4 9 9 5 5 7 8 9 9 8
1 4 16 9 15 17 5 1 4 2 3 5 7 9 10 8 9 9 7 5 4 1 1 2 4 5 3 1 2 3 2 2 2 1 4 5 4 5 7 11 9 7 5 3 2 3 2 3 2 2 4 5 8 10 10 9 7 4 2 2 2 2 4 5 4 2 1 3 2 3 0 4 5 4 4 6 11 12 7 7 11 9 5 7 8 8 8 8
3 3 10 11 6 7 2 3 4 4 4 6 8 10 10 9 9 9 5 3 3 3 3 3 3 2 3 4 4 3 2 1 2 3 1 4 7 4 1 6 8 8 4 2 2 1 1 1 2 1 3 5 6 6 7 8 6 3 3 5 4 3 5 4 2 3 2 2 2 4 1 3 4 4 7 7 10 13 10 8 7 6 5 6 6 7 7 8
4 2 4 6 6 5 2 3 3 4 4 6 6 6 6 7 8 7 5 3 2 3 4 4 3 3 2 4 5 5 1 2 1 3 2 2 6 7 6 5 7 6 3 5 5 3 1 1 3 4 2 1 1 0 2 5 5 2 4 7 6 6 7 4 2 4 1 3 4 3 3 3 4 6 9 8 8 9 8 7 6 6 5 3 2 5 8 8
3 2 3 4 3 1 2 3 3 3 5 5 4 4 4 5 6 6 5 2 2 5 5 5 5 4 4 5 4 6 5 1 1 3 3 2 3 5 6 8 9 7 5 7 8 5 2 1 2 3 5 5 4 3 3 4 4 4 7 8 6 5 6 5 4 1 2 0 3 1 4 2 1 6 7 7 8 6 5 7 5 4 5 6 6 4 3 6
3 1 4 4 4 4 3 4 4 3 5 4 2 4 4 4 4 4 4 2 5 7 6 6 5 3 4 4 2 3 5 6 6 6 6 6 3 3 7 10 9 7 6 6 5 4 3 1 1 1 2 3 5 7 8 7 6 5 7 8 7 7 6 5 2 4 3 3 3 3 3 1 2 4 1 3 3 5 6 6 4 5 7 8 3 3 2 4
3 1 3 4 3 4 4 5 5 5 8 6 2 4 6 5 4 3 2 3 5 7 5 5 7 7 8 7 2 1 3 3 5 6 7 7 5 3 5 7 6 6 5 4 3 5 4 1 3 2 4 5 5 7 7 7 7 7 6 6 7 7 7 5 4 5 2 2 5 5 2 3 3 3 3 2 3 6 8 8 5 4 3 7 10 9 5 4
4 2 4 5 3 5 6 8 7 5 7 7 4 5 6 6 7 5 3 3 5 6 6 6 9 12 13 11 8 4 3 2 3 4 4 5 4 3 3 4 2 3 4 2 0 3 4 1 2 1 2 4 5 7 8 7 7 7 6 7 7 6 5 4 3 4 3 1 3 2 4 4 4 5 5 6 6 7 8 9 9 8 6 3 2 5 5 5
4 2 4 5 5 5 5 8 7 3 6 8 6 7 7 9 10 7 4 6 4 4 5 6 10 12 12 14 12 8 7 6 4 3 4 5 5 3 2 2 1 2 2 1 1 3 3 1 1 3 3 5 5 6 8 8 7 6 7 7 6 5 6 5 3 5 5 3 4 6 8 6 5 5 4 7 7 8 9 10 9 9 9 9 7 6 4 1
9 7 6 4 4 5 4 4 4 4 5 6 5 6 8 12 13 9 6 10 11 9 6 7 10 10 10 14 13 9 10 9 6 5 5 4 4 4 3 2 3 4 3 2 1 3 3 1 1 5 3 3 4 5 7 7 7 7 6 7 6 5 5 4 4 5 4 3 6 9 7 2 5 5 6 7 8 9 9 8 8 8 9 11 10 10 10 8
15 11 9 4 3 5 4 4 6 5 4 6 7 8 8 12 14 10 5 8 14 14 11 10 10 7 7 11 10 9 11 11 8 7 5 4 5 5 4 5 5 3 2 2 2 2 3 2 1 3 2 2 3 5 6 7 7 5 4 7 7 4 4 5 6 8 8 5 5 5 3 2 5 9 9 9 8 8 7 6 6 6 8 10 10 9 10 11
Wind_Direction
327 325 323 322 320 318 316 316 315 313 314 314 313 315 315 314 313 314 314 310 311 309 311 313 312 316 315 316 316 318 327 324 318 301 261 248 238 227 253 267 278 220 215 249 252 243 252 232 228 241 247 254 236 221 259 258 253 250 202 215 245 244 247 252 250 264 278 307 4 23 47 29 357 28 12 20 90 149 79 78 81 73 92 114 117 123 128 132
325 322 321 319 318 316 314 315 314 312 314 313 314 316 315 315 313 314 312 309 310 308 311 313 314 316 312 315 319 329 335 321 305 280 261 254 238 227 239 246 247 214 214 237 240 230 239 230 218 226 233 242 229 209 220 227 231 229 205 208 225 235 244 260 259 285 323 309 359 32 61 35 337 21 12 342 315 43 82 83 84 88 94 106 116 121 126 130
324 322 319 318 318 316 315 314 314 314 313 313 314 313 313 313 314 313 312 311 311 311 312 312 314 314 312 315 324 343 333 315 295 265 269 255 223 217 227 240 240 228 228 236 235 229 237 243 226 213 211 231 233 224 216 201 215 218 213 233 244 246 255 267 268 295 312 306 30 32 36 359 345 15 316 326 332 329 108 122 112 112 117 119 123 124 129 132
323 320 317 317 317 315 314 313 313 314 313 313 313 313 312 312 314 312 313 314 313 313 312 312 315 313 318 322 334 348 324 308 283 248 275 219 207 207 216 230 232 231 238 241 242 243 258 269 253 220 205 228 229 235 236 211 210 209 199 225 248 260 270 272 277 306 318 348 43 24 18 356 344 346 262 44 5 322 99 137 140 137 135 133 133 132 133 129
321 318 317 316 315 314 313 312 311 311 311 311 311 312 313 313 313 313 315 316 313 312 312 314 314 315 323 331 345 348 328 324 245 231 172 165 192 198 209 220 229 233 236 239 247 258 270 275 266 241 214 230 234 235 242 223 214 227 220 224 237 249 263 274 281 321 4 15 27 18 4 337 320 319 250 76 118 257 280 145 144 142 141 139 139 136 132 124
320 318 318 316 315 314 313 312 311 311 311 310 311 310 311 313 312 314 315 313 315 314 315 315 312 320 328 334 350 345 338 238 293 266 155 158 178 193 207 218 226 228 227 231 243 260 268 264 258 251 222 227 236 241 254 236 209 227 251 237 241 243 248 272 281 304 48 7 360 360 332 316 305 305 296 26 92 117 109 127 129 127 127 126 131 128 124 124
321 319 317 315 313 312 311 310 309 309 310 310 310 309 310 310 310 311 309 310 317 316 314 312 316 331 336 343 353 328 249 264 287 263 170 167 179 195 206 213 216 211 206 216 232 242 254 256 245 236 239 232 231 244 257 255 227 224 248 243 246 253 254 270 279 289 88 131 338 337 321 312 299 306 304 33 95 97 97 105 107 102 98 98 99 98 105 107
320 319 316 313 312 311 310 308 308 307 308 307 307 308 308 308 308 308 308 311 314 316 315 312 322 335 345 356 345 265 235 254 261 215 181 183 186 195 199 199 201 195 194 212 231 238 251 256 236 222 244 235 227 236 243 254 249 231 234 240 245 260 271 279 281 293 331 140 76 318 293 287 282 288 286 192 115 110 103 102 102 98 95 94 92 85 87 87
319 318 315 311 312 312 309 308 308 307 306 306 305 305 305 305 305 306 307 308 310 314 314 313 321 332 351 349 317 308 265 227 210 178 176 195 190 185 186 185 190 185 192 219 235 244 255 252 231 216 229 247 249 248 250 254 250 229 227 229 228 248 276 284 279 286 305 271 136 263 260 261 269 275 272 214 129 119 111 109 108 107 108 108 102 93 94 95
320 318 314 311 312 310 308 308 305 306 306 305 306 305 304 304 302 303 302 303 306 309 313 318 323 339 347 311 283 322 267 185 138 132 164 187 174 172 177 181 187 184 200 225 232 239 246 245 242 222 226 252 257 260 270 264 263 252 244 245 237 244 263 268 264 256 269 258 213 235 251 246 244 234 256 203 134 121 112 111 108 108 109 107 102 99 102 100
322 318 313 310 311 309 307 305 302 304 305 304 306 306 307 306 304 303 301 301 301 301 306 315 332 355 333 299 251 264 258 172 125 118 138 162 162 171 177 183 191 191 208 229 232 235 238 244 253 244 231 272 281 269 268 263 276 287 295 287 270 271 271 269 261 243 252 238 210 223 251 253 241 210 231 202 136 126 118 116 114 112 112 109 108 108 107 103
324 319 313 310 310 308 304 301 300 302 303 304 306 306 308 307 307 302 296 295 295 297 302 316 355 16 330 296 231 245 260 229 150 136 143 166 175 180 177 186 199 201 211 228 239 241 243 251 274 309 271 315 311 279 282 288 285 274 289 305 287 298 280 272 268 256 259 230 203 209 252 268 263 222 214 185 132 125 118 116 114 114 115 114 112 109 110 118
327 318 313 311 310 306 303 300 299 300 302 304 304 307 309 310 312 307 296 289 290 294 302 319 4 359 328 269 242 253 266 257 174 142 155 183 190 190 191 196 201 214 223 236 256 267 265 256 279 321 296 307 295 304 311 305 290 250 264 263 281 303 274 258 249 248 245 236 201 184 244 264 265 249 206 143 121 121 118 119 118 117 117 118 114 110 120 130
328 320 315 313 309 304 301 299 299 301 302 305 306 309 313 316 319 314 300 290 286 287 288 320 25 28 301 250 279 282 252 237 176 158 174 190 202 204 212 217 219 228 234 246 263 286 288 266 284 306 291 293 283 313 317 305 293 266 294 272 225 249 260 244 223 231 227 227 189 162 220 252 266 263 161 127 127 129 127 126 124 126 127 128 124 123 135 146
330 325 319 314 309 303 301 299 300 300 301 305 307 313 318 320 322 319 306 293 282 269 283 306 221 185 305 276 293 281 218 211 192 193 193 195 212 214 213 224 237 242 245 254 266 288 298 298 329 293 273 277 269 284 289 290 280 232 261 281 237 214 253 246 215 215 211 216 177 153 217 255 268 244 153 134 135 137 135 130 130 137 136 136 134 132 142 153
334 329 323 316 311 305 303 301 299 299 301 305 310 320 324 320 321 320 309 297 285 199 158 304 209 195 300 284 295 265 199 207 210 203 198 201 215 219 204 212 231 238 246 252 258 279 285 265 279 252 257 272 261 261 271 296 293 230 191 240 241 219 248 252 212 206 204 204 161 151 218 262 269 223 164 129 135 137 133 133 138 143 141 140 135 135 146 154
339 334 328 322 316 311 310 304 302 302 302 306 314 325 326 319 318 326 322 303 356 181 216 277 235 193 263 276 296 283 190 205 212 196 195 208 219 216 190 193 225 223 235 246 241 256 257 168 200 236 252 257 252 273 284 275 273 275 231 236 247 237 242 230 199 199 195 181 148 157 215 258 279 176 137 123 134 130 131 140 142 142 140 143 142 147 157 159
346 339 333 329 325 321 319 312 309 305 303 311 320 327 329 319 305 315 348 86 77 339 258 277 287 190 258 257 252 234 197 202 208 190 193 211 225 224 194 183 220 209 208 244 236 227 206 185 193 220 271 263 244 234 223 234 242 284 266 239 264 265 248 205 193 198 184 171 151 163 216 249 252 135 140 159 143 126 136 146 143 144 144 148 151 154 158 159
353 347 341 337 333 328 325 318 313 307 307 315 321 321 321 314 293 289 252 156 115 7 266 236 201 173 265 233 212 227 210 187 190 185 195 208 220 235 222 196 212 206 193 218 224 209 184 208 242 246 263 246 236 224 215 234 262 316 305 259 281 282 260 219 190 181 170 165 158 165 212 239 205 183 178 183 143 130 141 143 141 150 148 154 158 154 158 161
359 354 347 340 336 332 328 323 318 314 316 325 341 337 321 320 328 346 201 209 211 229 258 229 196 231 281 279 201 217 196 160 177 193 200 207 207 229 236 203 219 221 208 212 215 211 174 180 235 230 231 233 235 227 222 264 326 336 334 315 315 310 290 274 156 164 149 132 178 181 211 241 217 208 211 189 138 133 141 142 147 155 152 161 166 162 166 165
0 358 352 342 335 334 332 329 326 321 322 333 355 349 296 295 309 17 186 224 224 225 246 251 230 234 254 269 217 184 161 150 199 206 197 203 203 209 197 191 234 243 226 232 237 228 168 192 231 228 231 228 213 191 171 34 15 0 352 328 323 320 315 9 84 144 108 95 192 330 332 272 271 274 258 189 143 142 147 150 157 163 165 173 173 167 164 159
360 359 355 345 334 334 333 328 323 318 317 313 305 239 254 276 299 354 1 262 251 231 235 248 250 245 246 259 236 177 157 178 212 220 189 183 188 196 180 181 220 247 233 230 234 229 196 222 238 232 235 218 165 85 61 44 23 11 358 341 314 304 331 3 43 70 62 83 358 8 13 300 304 325 310 219 159 154 153 158 163 165 167 175 176 166 158 159
358 358 356 349 335 327 325 320 314 306 296 268 233 226 263 284 306 349 354 290 282 255 236 235 244 249 250 257 222 178 189 188 195 224 184 172 186 195 196 196 210 230 234 224 207 193 202 238 240 223 209 178 118 30 41 35 8 333 300 328 291 289 349 345 333 59 52 72 87 40 10 314 320 340 327 292 176 129 141 156 160 165 168 175 177 164 160 166
354 354 354 349 335 318 315 314 302 292 287 269 254 255 277 290 303 1 11 266 277 266 249 231 229 235 245 256 200 172 216 200 196 210 177 177 194 177 203 230 224 230 231 223 210 206 224 233 220 182 168 155 121 67 63 55 337 291 243 214 264 285 332 340 302 23 24 16 62 55 14 318 320 330 311 296 139 99 137 149 146 160 162 166 171 163 163 169
352 351 350 349 339 314 313 310 293 300 301 269 265 275 288 287 298 29 34 278 270 260 242 229 222 220 230 240 205 179 210 213 222 210 171 181 198 176 205 228 224 244 247 237 220 214 233 224 141 124 148 138 110 129 149 145 262 308 255 215 229 268 290 288 320 44 43 351 327 89 51 295 301 303 282 285 318 32 161 145 135 148 136 148 163 165 169 173
349 348 347 348 341 319 317 306 284 318 306 255 276 295 309 311 350 28 39 290 283 243 198 190 179 198 210 211 197 189 208 223 230 214 174 180 200 199 207 220 212 235 249 252 242 205 215 210 146 117 81 34 43 339 213 147 152 296 261 245 244 263 277 265 264 79 105 269 251 136 134 265 302 304 282 280 299 289 181 136 126 134 112 134 160 169 169 165
345 344 343 343 340 322 292 290 302 319 297 271 304 325 18 28 2 26 64 319 284 203 169 165 153 182 187 181 180 167 217 244 226 207 175 175 199 199 198 244 254 234 250 311 313 283 182 159 119 101 91 50 4 286 261 180 169 248 238 282 307 287 283 271 263 186 175 202 307 147 143 179 287 279 277 282 299 289 219 156 124 135 133 134 150 165 167 162
341 340 338 339 339 315 254 281 307 315 289 288 316 334 5 4 355 34 78 336 276 155 144 169 166 173 172 183 187 176 240 259 246 184 159 166 193 175 184 240 264 271 288 294 246 260 203 143 153 136 124 167 204 230 240 204 194 235 222 200 274 296 314 312 300 269 204 114 306 264 158 155 266 273 289 296 302 289 214 174 128 117 134 140 146 162 169 164
338 338 333 333 337 318 271 271 278 293 295 301 327 336 345 349 357 52 76 98 271 275 147 144 156 180 192 193 197 209 240 254 255 176 150 162 193 182 173 234 271 298 294 274 241 234 210 181 172 151 136 181 215 233 243 233 219 224 217 191 16 351 334 325 316 301 35 98 233 264 153 116 276 284 299 308 307 284 212 179 146 111 91 87 113 145 158 148
333 333 329 327 331 333 313 274 262 303 320 316 328 328 333 345 17 75 88 245 270 252 127 82 343 175 186 199 201 208 230 254 238 185 153 151 189 177 166 252 272 296 300 301 278 235 222 190 137 141 163 186 230 241 243 249 239 200 160 98 39 345 299 302 312 49 64 22 248 247 241 183 261 281 254 255 275 231 206 177 153 124 100 89 90 112 128 121
326 327 324 317 313 316 324 264 267 340 352 333 327 326 334 355 78 135 221 282 285 260 126 142 205 184 192 205 206 202 218 247 241 177 154 130 160 163 272 309 272 267 309 318 306 280 274 228 133 188 177 174 285 287 279 276 268 202 109 72 43 340 320 335 339 34 74 277 254 244 291 238 225 266 242 239 298 215 176 153 133 117 102 98 93 96 101 95
320 320 313 304 297 279 253 242 268 343 356 343 342 348 26 25 215 205 250 342 319 275 305 219 199 197 199 200 217 214 203 231 244 187 159 164 172 186 195 203 204 220 294 286 298 308 288 247 232 223 177 172 185 276 308 312 310 326 79 75 61 347 349 4 329 8 151 253 259 52 31 334 230 242 246 250 320 61 108 117 122 116 103 97 97 94 89 88
316 315 306 292 286 272 256 255 269 307 340 340 347 35 88 117 234 219 227 300 252 232 297 304 248 218 197 190 218 223 200 210 224 193 183 183 175 193 207 205 202 186 205 253 327 338 302 298 288 289 184 180 164 145 245 285 298 280 134 106 119 157 46 281 270 271 235 270 293 87 94 292 270 270 286 288 296 59 82 96 111 114 109 104 101 93 83 82
316 314 304 287 276 268 261 260 258 266 319 337 3 86 157 212 246 258 252 264 258 245 250 280 279 255 208 190 201 212 198 207 215 196 188 187 169 189 212 213 213 199 171 197 318 191 289 313 277 254 176 173 177 172 185 208 249 243 201 149 154 157 156 195 199 179 222 276 310 17 126 219 262 254 270 281 50 80 77 87 92 89 95 96 88 82 79 79
318 316 308 291 274 265 259 252 241 238 281 320 73 162 199 218 245 253 255 252 255 261 247 241 271 284 247 206 204 213 199 199 218 217 198 186 183 196 200 206 214 206 139 143 246 221 223 255 239 218 173 164 175 197 187 185 302 268 237 139 168 177 148 154 187 191 179 25 313 298 193 215 202 241 260 257 98 98 98 95 91 79 74 79 82 81 80 78
322 321 307 285 272 265 257 245 226 216 227 235 182 219 214 227 246 236 264 262 254 292 304 256 250 279 275 256 244 234 205 181 197 213 239 205 193 198 196 198 208 202 160 140 223 261 193 256 280 234 176 167 156 190 174 122 146 284 309 165 194 167 132 122 262 263 78 47 275 238 257 290 321 284 273 197 117 116 117 111 110 103 85 84 90 87 83 80
326 323 300 271 265 261 257 238 205 196 200 178 195 233 232 239 248 248 274 279 278 314 336 314 276 280 294 326 292 263 201 175 180 180 229 279 230 245 233 208 181 178 151 119 121 309 133 265 305 347 236 194 146 188 286 96 111 26 319 258 236 118 115 105 95 330 55 233 258 211 215 258 228 275 296 160 164 162 137 130 122 108 96 95 100 96 93 90
323 314 286 267 256 245 239 213 182 177 175 195 222 248 253 254 259 268 286 291 297 310 304 271 212 230 273 355 295 291 171 153 185 188 214 211 214 308 311 229 138 114 94 93 98 314 43 302 303 341 332 324 84 169 280 338 47 228 247 300 44 108 137 53 129 183 194 212 276 249 231 245 185 225 269 237 223 204 158 142 128 118 114 109 107 104 98 93
310 299 282 270 254 233 217 193 173 171 184 210 230 244 246 258 263 267 274 275 283 291 275 319 284 215 192 178 269 295 283 186 203 329 236 202 218 307 346 348 35 54 57 75 101 271 45 66 286 320 347 355 11 108 199 301 326 296 271 311 26 142 160 192 174 168 171 195 260 279 278 315 282 238 256 293 266 221 155 140 130 126 126 120 116 111 101 98
299 280 262 279 276 230 197 180 169 181 211 214 232 248 256 264 262 258 261 262 264 275 289 334 343 295 228 186 213 257 281 258 259 332 298 278 311 302 306 332 5 62 63 69 79 17 35 79 249 304 349 9 344 280 186 190 352 27 344 308 309 356 86 58 321 46 125 159 195 355 319 286 268 278 326 351 355 23 106 121 116 113 120 122 119 113 108 110
300 265 267 293 251 178 167 159 168 194 206 235 238 246 259 264 271 277 281 284 283 59 15 317 313 308 302 310 235 229 237 235 211 46 305 315 22 357 256 245 166 138 97 73 50 30 50 92 183 306 341 339 280 295 329 354 11 140 187 181 166 117 87 64 349 330 52 121 161 136 188 264 258 319 356 347 12 49 89 97 73 60 102 114 114 115 115 118
267 227 288 328 129 141 136 126 210 192 201 242 237 245 259 257 265 274 278 291 300 124 153 285 284 278 264 296 310 285 326 234 191 152 198 237 20 15 318 337 36 94 94 99 78 27 87 104 82 294 280 280 293 309 324 327 324 316 213 165 111 115 114 112 171 267 285 221 183 121 137 262 270 347 9 359 14 29 90 112 102 96 108 110 111 116 117 116
244 285 298 306 137 138 111 159 227 247 222 238 246 251 257 256 259 259 255 283 308 261 221 235 261 277 273 305 310 301 322 300 266 190 173 165 98 45 353 356 26 54 54 73 63 348 358 78 77 299 294 308 314 315 316 320 335 351 322 344 65 128 130 135 170 193 219 224 166 117 186 271 282 329 15 27 29 26 31 94 117 127 119 110 113 115 119 120
293 267 296 297 200 171 132 174 231 262 238 244 249 250 258 262 261 261 264 291 304 307 312 274 259 300 4 354 332 321 359 35 320 306 240 119 110 120 28 13 40 55 41 40 87 253 299 72 100 52 346 339 336 332 331 340 2 18 316 334 359 36 65 76 68 53 22 292 101 120 199 264 277 336 17 30 36 44 46 47 69 88 86 101 123 124 120 121
310 247 274 284 238 213 192 186 216 237 259 270 259 261 279 280 271 272 284 283 284 336 335 318 341 12 344 331 335 332 338 146 166 299 294 113 135 159 159 107 75 75 66 42 61 106 150 108 110 120 151 239 275 343 353 344 349 347 326 333 348 25 53 74 58 54 31 309 19 98 179 254 301 7 23 22 32 55 79 70 45 46 51 44 108 140 134 133
326 300 331 322 295 312 287 281 282 252 268 283 281 291 292 287 302 315 316 305 16 7 334 314 341 358 349 358 356 336 327 318 350 340 341 24 150 162 138 112 95 94 87 53 52 70 81 52 91 135 175 197 228 265 330 344 332 324 326 326 330 6 45 71 64 72 181 355 350 191 153 163 33 50 30 7 25 39 78 103 105 93 73 38 359 347 99 119
344 339 15 352 315 342 341 321 338 319 294 287 278 313 307 285 298 320 325 356 31 13 338 318 335 354 350 349 344 341 338 337 351 3 4 6 18 102 109 108 100 93 87 73 81 92 68 6 327 282 246 256 278 298 319 323 310 303 306 310 320 341 9 28 351 242 187 69 308 272 81 83 202 120 89 310 30 39 32 61 112 136 123 114 101 299 298 114
4 339 17 10 314 322 333 334 346 341 330 324 326 357 351 345 346 347 338 337 0 12 2 339 352 3 352 341 337 344 317 316 354 11 16 15 9 24 72 90 102 109 95 76 107 115 104 210 256 276 282 286 290 300 307 300 295 300 297 298 312 330 349 354 304 263 229 171 234 245 29 351 309 50 46 351 49 59 42 42 62 88 123 148 160 187 195 108
4 337 343 358 334 302 311 326 329 331 345 354 6 356 360 22 10 350 358 355 345 12 21 0 359 6 9 20 39 32 351 346 12 17 19 13 356 351 33 54 88 131 109 80 108 104 102 198 253 334 324 321 332 329 322 311 301 304 307 307 309 321 347 4 345 335 341 262 246 225 88 57 4 10 33 36 41 56 56 46 44 45 32 19 202 208 180 126
354 319 335 340 327 317 319 325 326 353 14 13 18 358 1 27 14 347 15 34 6 9 31 26 14 9 18 39 49 35 9 10 24 24 17 12 1 356 33 55 352 353 45 70 347 53 80 195 265 58 26 346 342 328 317 311 307 308 310 317 336 2 4 3 15 26 30 7 360 42 73 57 345 326 26 44 42 46 51 48 41 37 38 35 16 347 343 213
345 321 332 316 299 321 317 318 350 56 34 8 9 1 9 28 20 7 31 40 32 25 32 46 33 19 29 41 38 16 354 351 350 349 353 359 346 333 340 353 1 5 5 6 25 53 87 165 36 63 51 321 315 321 322 331 342 347 341 340 3 40 33 18 33 37 34 39 36 43 58 30 335 356 25 34 42 47 46 51 55 47 46 47 38 26 10 349
355 336 340 322 268 308 322 7 28 49 37 7 6 10 22 33 28 24 26 26 27 22 19 39 44 34 41 35 15 348 338 331 318 317 324 329 323 318 324 327 335 356 352 358 37 97 109 99 92 96 114 257 297 332 343 6 9 350 344 356 3 33 61 51 44 29 24 41 62 45 30 16 28 32 26 19 32 46 39 45 62 60 55 52 44 41 33 13